Location: Carson
(33.8314°N, 118.2820°W)
Time: 22:59:08
(UTC+00:00)

SL-8 R/B - Pass Details

Date: 23 November 2020
Orbit: 656 x 668 km, 48.4° (Epoch: 20 January)

Event Time Altitude Azimuth Distance (km) Brightness Sun altitude
Exits shadow 12:32:33 49° 6° (N) 857 4.1 -24.8°
Maximum altitude 12:33:10 52° 34° (NE) 818 4.2 -24.7°
Drops below altitude 10° 12:37:51 10° 111° (ESE) 2,076 7.3 -23.7°
Sets 12:40:15 0° 116° (ESE) 2,988 8.3 -23.2°
